THOR ABLESTAR DEB, 2620

Orbit data source: Space-Track

THOR ABLESTAR DEB, 2620 is space debris in LEO originally from a launch on Thu, 05 Dec 1963 UTC launched from the Air Force Western Test Range (AFWTR). Debris objects in space refer to the collection of defunct objects orbiting the Earth. Examples of debris include non-operational satellites, rocket bodies, and fragments generated from explosions, collisions, or faulty payload assembly.

Loading next visibility...
Identifier
2620, 1963-049H
Orbit
LEO
Country
Flag of USUS
Related business
Manufacturer
Unknown
Mission
Spacecraft
Bus & Motor
Unknown
Mass
Unknown
Launch date (UTC)
1963-12-05 (62 years ago)
Launch vehicle
Unknown
Launch site
Air Force Western Test Range (AFWTR)
Object type
Payload
Rocket body
Debris
Shape & HBR
Unknown shape, 0.1 m
Radar Cross Section
Small (<0.1 m²)

Expand to show TLE details & history
Last TLE update: 21 hours ago

TLE from 21 hours ago
0 THOR ABLESTAR DEB
1 02620U 63049H   25310.59086749  .00000369  00000-0  48483-3 0  9999
2 02620  89.9165  74.4145 0015766  36.5297 339.6984 13.59623302 60149
Epoch: 2025-11-06T14:10Z
TLE epoch observation values (Epoch: 2025-11-06T14:10:50.951Z)
Latitude
16.14543°
Longitude
175.67926°
Altitude
1,028.411 km
Speed
7.344 km/s
True Right ascension
04h 57m 45s
True Declination
16° 03' 26"
Sunlit
Object was in full shadow at epoch
Visualization orbit readout
Latitude
Unknown
Longitude
Unknown
Altitude
Unknown
Speed
Unknown
Apparent Right ascension
Unknown
Apparent Declination
Unknown
Sunlit
N/A
Visualization observer readout
Local Sidereal Time
06:55:08
Azimuth
Unknown
Elevation
Unknown
Doppler factor
Unknown
Orbital elements
Apogee altitude
1,045.783 km
Perigee altitude
1,022.411 km
Semi-major axis
7,412.234 km
Eccentricity
0.00158
Inclination
89.9165°
RAAN
74.4145°
Arg. of periapsis
36.5297°
True anomaly
339.6356°
Mean anomaly
339.6984°
Eccentric anomaly
339.66701°
Mean motion
3.4011 °/min
Orbital period
105.85 mins
BSTAR
0.00048483
Loading maneuver chart data...
Computing Atmospheric mass density...
Loading historical data...
Loading historical data...
Loading historical data...
Loading historical data...
Loading historical data...
Loading historical data...
Loading historical data...

Documentation

Showing up to 5 results
|